Girdwood, AK

11:32 AM AKST on December 10, 2016 (GMT -0900)
Portage Glacier

Weather History for PATO - August, 2013

Change the Weather History Date:

Wednesday, August 21, 2013

  Actual Average (PAWR) Record (PAWR)
Temperature  
Mean Temperature 50 °F -  
Max Temperature 51 °F 58 °F 71 °F (2001)
Min Temperature 48 °F 49 °F 42 °F (1960)
Degree Days  
Heating Degree Days 16    
Moisture  
Dew Point 49 °F    
Average Humidity 95    
Maximum Humidity 97    
Minimum Humidity 88    
Precipitation  
Precipitation 0.47 in - - ()
Sea Level Pressure  
Sea Level Pressure 29.89 in    
Wind  
Wind Speed 7 mph (ESE)    
Max Wind Speed 10 mph    
Max Gust Speed -    
Visibility 9 miles    
Events Rain    
Averages and records for this station are not official NWS values.
T = Trace of Precipitation, MM = Missing Value Source: NWS Daily Summary

Daily Weather History Graph

Daily Weather History Graph

Search for Another Location

Airport or City:

Trip Planner

Search our weather history database for the weather conditions in past years. The results will help you decide how hot, cold, wet, or windy it might be!

Date:

Astronomy

Aug. 21, 2013 Rise Set
Actual Time 6:22 AM AKDT 9:32 PM AKDT
Civil Twilight 5:31 AM AKDT 10:22 PM AKDT
Nautical Twilight 4:20 AM AKDT 11:32 PM AKDT
Astronomical Twilight 2:30 AM AKDT 1:25 AM AKDT
Moon 9:07 PM AKDT (8/21) 7:44 AM AKDT (8/21)
Length of Visible Light 16h 50m
Length of Day
15h 10m
Full, 99% of the Moon is Illuminated
Aug 21
Full
Aug 28
Last Quarter
Sep 5
New
Sep 12
First Quarter
Sep 19
Full

Hourly Weather History & Observations

Time (AKDT) Temp. Dew Point Humidity Pressure Visibility Wind Dir Wind Speed Gust Speed Precip Events Conditions
12:42 AM 51.1 °F 48.9 °F 92% 29.93 in 7.0 mi Variable 5.8 mph - 0.02 in Rain Rain
12:50 AM 51.8 °F 48.2 °F 88% 29.93 in 7.0 mi Variable 5.8 mph - 0.03 in Rain Rain
12:53 AM 51.1 °F 50.0 °F 96% 29.93 in 7.0 mi Variable 4.6 mph - 0.04 in Rain Light Rain
1:53 AM 50.0 °F 48.9 °F 96% 29.94 in 10.0 mi SE 8.1 mph - 0.05 in Rain Light Rain
2:53 AM 48.9 °F 48.0 °F 97% 29.94 in 7.0 mi East 6.9 mph - 0.05 in Rain Light Rain
3:18 AM 48.9 °F 48.0 °F 97% 29.93 in 8.0 mi ESE 9.2 mph - 0.02 in Rain Light Rain
3:53 AM 50.0 °F 48.9 °F 96% 29.93 in 7.0 mi East 8.1 mph - 0.05 in Rain Light Rain
4:53 AM 50.0 °F 48.0 °F 93% 29.93 in 10.0 mi East 8.1 mph - 0.02 in Rain Light Rain
5:20 AM 50.0 °F 48.0 °F 93% 29.92 in 10.0 mi ESE 9.2 mph - 0.01 in Rain Light Rain
5:53 AM 48.9 °F 48.0 °F 97% 29.92 in 10.0 mi East 9.2 mph - 0.01 in Rain Light Rain
6:16 AM 50.0 °F 48.9 °F 96% 29.92 in 10.0 mi Variable 3.5 mph - 0.00 in Rain Light Rain
6:29 AM 50.0 °F 48.9 °F 96% 29.91 in 10.0 mi Variable 5.8 mph - 0.00 in Rain Light Rain
6:53 AM 50.0 °F 48.9 °F 96% 29.91 in 10.0 mi SE 8.1 mph - 0.00 in   Overcast
7:53 AM 50.0 °F 48.9 °F 96% 29.91 in 10.0 mi Variable 6.9 mph - 0.00 in Rain Light Rain
8:53 AM 50.0 °F 48.9 °F 96% 29.91 in 9.0 mi Variable 4.6 mph - 0.00 in Rain Light Rain
9:53 AM 50.0 °F 48.9 °F 96% 29.91 in 5.0 mi SE 5.8 mph - 0.01 in Rain Light Rain
10:53 AM 50.0 °F 48.9 °F 96% 29.90 in 8.0 mi ESE 8.1 mph - 0.00 in Rain Light Rain
11:53 AM 50.0 °F 48.9 °F 96% 29.90 in 10.0 mi ESE 6.9 mph - 0.01 in Rain Light Rain
12:53 PM 51.1 °F 48.9 °F 92% 29.90 in 10.0 mi ESE 9.2 mph - 0.00 in Rain Light Rain
1:15 PM 51.1 °F 48.9 °F 92% 29.89 in 10.0 mi Variable 5.8 mph - 0.01 in Rain Light Rain
1:43 PM 51.1 °F 50.0 °F 96% 29.89 in 7.0 mi SE 6.9 mph - 0.02 in Rain Light Rain
1:53 PM 51.1 °F 48.9 °F 92% 29.89 in 7.0 mi SE 9.2 mph - 0.02 in Rain Light Rain
2:09 PM 51.1 °F 48.9 °F 92% 29.89 in 10.0 mi SE 9.2 mph - 0.01 in Rain Light Rain
2:53 PM 51.1 °F 48.9 °F 92% 29.89 in 8.0 mi SE 9.2 mph - 0.01 in Rain Light Rain
3:44 PM 51.1 °F 48.9 °F 92% 29.88 in 10.0 mi Variable 6.9 mph - 0.01 in Rain Light Rain
3:53 PM 50.0 °F 48.9 °F 96% 29.88 in 10.0 mi ESE 8.1 mph - 0.01 in Rain Light Rain
4:53 PM 51.1 °F 48.9 °F 92% 29.87 in 8.0 mi ESE 6.9 mph - 0.02 in Rain Light Rain
5:53 PM 51.1 °F 48.9 °F 92% 29.86 in 9.0 mi SE 6.9 mph - 0.03 in Rain Light Rain
6:53 PM 50.0 °F 48.9 °F 96% 29.85 in 9.0 mi ESE 6.9 mph - 0.01 in Rain Light Rain
7:53 PM 50.0 °F 48.9 °F 96% 29.84 in 9.0 mi Variable 6.9 mph - 0.03 in Rain Light Rain
8:53 PM 50.0 °F 48.0 °F 93% 29.84 in 10.0 mi East 6.9 mph - 0.02 in Rain Light Rain
9:18 PM 50.0 °F 48.0 °F 93% 29.83 in 10.0 mi East 10.4 mph - 0.00 in Rain Light Rain
9:25 PM 48.9 °F 48.0 °F 97% 29.83 in 10.0 mi ESE 8.1 mph - 0.01 in Rain Light Rain
9:53 PM 50.0 °F 48.0 °F 93% 29.84 in 10.0 mi East 9.2 mph - 0.02 in Rain Light Rain
10:53 PM 48.9 °F 48.0 °F 97% 29.84 in 8.0 mi East 10.4 mph - 0.03 in Rain Light Rain
11:53 PM 50.0 °F 48.9 °F 96% 29.83 in 10.0 mi ESE 8.1 mph - 0.03 in Rain Light Rain